www.pogodaiklimat.ru

Погода и климат >> Архив погоды >> Индия >> Западная Бенгалия >> Колката


АРХИВ ПОГОДЫ в Колкате

Время (UTC), дата Ветер
(напр.,м/с)
 
Видим.   Явления Облачность Т
(С)
Тd
(С)
f
(%)
Тe
(С)
Тes
(С)
Комфортность P
(гПа)
Po
(гПа)
Тmin
(С)
Tmax
(С)
R
(мм)
R24
(мм)
S
(см)
18 11.08 З 1 2000 м мгла 9/6 540 м
[Cb calv Ac trans]
+29.8 +27.3 86 +47 +47 опасность
перегрева
998.6 997.9
21 11.08 СЗ 1 2000 м мгла 9/6 540 м
[Cb calv Ac trans]
+29.4 +26.6 85 +45 +45 опасность
перегрева
996.8 996.1
00 12.08 СЗ 1 2000 м мгла 9/5 540 м
[Sc Ac trans]
+28.4 +27.0 92 +45 +45 опасность
перегрева
996.7 996.0
03 12.08 С 1 2000 м мгла 10/6 540 м
[Cb calv As op]
+29.4 +27.5 90 +48 +49 опасность
перегрева
997.7 997.0 +28.1
06 12.08 СВ 1 2000 м мгла {дождь} 10/5 540 м
[Sc As op]
+29.6 +27.7 90 +48 +51 опасность
перегрева
997.8 997.1 0.2
09 12.08 Ю 2 2000 м мгла {дождь} 9/4 540 м
[Sc Ac As]
+31.4 +27.0 78 +49 +53 опасность
перегрева
995.8 995.1 0.2
12 12.08 штиль 0 2000 м мгла {гроза} 9/5 540 м
[Cb calv Ac trans]
+27.8 +26.1 90 +42 +42 опасность
перегрева
996.0 995.3 +31.8 1
15 12.08 штиль 0 2000 м мгла 6/4 540 м
[Sc Ac trans]
+28.0 +26.9 94 +44 +44 опасность
перегрева
998.3 997.6 1
18 12.08 С 2 2000 м в посл. час гроза {дождь} 9/6 540 м
[Cb calv As op]
+27.4 +25.7 90 +40 +40 очень
душно
997.9 997.2 1
21 12.08 штиль 0 2000 м слаб. дождь 10/5 540 м
[Sc As op]
+27.2 +26.9 98 +42 +42 опасность
перегрева
996.4 995.7 10
00 13.08 СВ 2 2000 м мгла {дождь} 10/5 540 м
[Cb calv As op]
+26.8 +26.5 98 +41 +41 опасность
перегрева
997.1 996.4 11
03 13.08 ЮВ 2 2000 м мгла {дождь} 9/5 450 м
[Cb calv As op]
+28.6 +27.8 95 +47 +49 опасность
перегрева
999.0 998.3 +26.0 11
06 13.08 В 2 2000 м слаб. дождь 9/6 450 м
[Cb calv As op]
+31.4 +27.8 81 +51 +55 опасность
перегрева
999.5 998.8 13
09 13.08 Ю 1 2000 м слаб. дождь 10/6 450 м
[Cb calv As op]
+29.4 +27.5 90 +48 +49 опасность
перегрева
998.2 997.5 15
12 13.08 Ю 3 2000 м слаб. дождь 10/6 450 м
[Cb calv As op]
+28.2 +26.8 92 +44 +44 опасность
перегрева
998.9 998.2 +31.5 15
15 13.08 Ю 2 2000 м слаб. дождь 10/6 450 м
[Sc As op]
+27.0 +25.3 90 +39 +39 очень
душно
1001.6 1000.9 15
18 13.08 Ю 2 2000 м мгла {дождь} 8/4 540 м
[Sc As op]
+27.0 +24.7 87 +38 +38 очень
душно
1001.9 1001.2 19
21 13.08 ЮВ 1 2000 м мгла 9/5 540 м
[Sc As op]
+27.8 +26.9 95 +44 +44 опасность
перегрева
1000.6 999.9 19
00 14.08 ЮВ 1 2000 м слаб. дождь 10/6 540 м
[Cb calv As op]
+26.4 +25.8 97 +39 +39 очень
душно
1001.3 1000.6 28
03 14.08 В 1 2000 м слаб. дождь 10/8 450 м
[Cb calv As op]
+28.4 +27.9 97 +47 +47 опасность
перегрева
1003.8 1003.1 +26.0 28
06 14.08 Ю 2 2000 м гроза с градом 10/8 450 м
[Cb calv As op]
+29.4 +27.2 88 +47 +48 опасность
перегрева
1004.0 1003.3 3
09 14.08 Ю 2 2000 м мгла {гроза, дождь} 9/5 540 м
[Sc diur, vesp Ac trans]
+31.8 +26.5 74 +49 +52 опасность
перегрева
1002.2 1001.5 3
12 14.08 Ю 2 2000 м мгла {гроза, дождь} 9/4 540 м
[Cb calv Ac trans]
+30.2 +24.6 72 +43 +43 опасность
перегрева
1001.7 1001.0 +32.5 3
15 14.08 ЮВ 1 2000 м мгла 8/3 540 м
[Sc Ac trans]
+29.2 +26.7 86 +45 +45 опасность
перегрева
1004.5 1003.8 3
18 14.08 Ю 1 2000 м мгла 8/4 540 м
[Sc Ac trans]
+29.0 +27.1 90 +46 +46 опасность
перегрева
1005.7 1005.0 3
21 14.08 ЮЗ 1 2000 м гроза, ливневой дождь 10/6 450 м
[Cb calv As op]
+27.2 +26.1 94 +41 +41 опасность
перегрева
1004.5 1003.8 4
00 15.08 штиль 0 2000 м гроза, ливневой дождь 10/6 450 м
[Cb calv As op]
+26.2 +25.9 98 +39 +39 очень
душно
1005.1 1004.4 24
03 15.08 Ю 2 2000 м слаб. дождь {гроза} 10/6 450 м
[Cb calv As op]
+26.4 +25.8 97 +39 +40 очень
душно
1006.4 1005.7 +25.7 27
06 15.08 Ю 1 2000 м в посл. час дождь 10/5 450 м
[Sc As op]
+28.6 +27.8 95 +47 +49 опасность
перегрева
1006.0 1005.3 1
09 15.08 Ю 1 2000 м мгла 10/6 540 м
[Cb calv As op]
+29.4 +27.8 91 +48 +49 опасность
перегрева
1003.9 1003.2 1
12 15.08 Ю 1 2000 м мгла 9/5 540 м
[Sc As op]
+29.0 +27.6 92 +47 +47 опасность
перегрева
1002.9 1002.2 +29.8 1
15 15.08 Ю 2 2000 м мгла 8/5 540 м
[Cb calv Ac trans]
+28.4 +27.6 95 +46 +46 опасность
перегрева
1004.4 1003.7 1
18 15.08 штиль 0 2000 м мгла 9/6 540 м
[Cb calv Ac trans]
+28.0 +27.4 97 +45 +45 опасность
перегрева
1004.9 1004.2 1
21 15.08 Ю 2 2000 м мгла 9/5 540 м
[Sc Ac trans]
+27.6 +26.5 94 +42 +42 опасность
перегрева
1003.3 1002.6 1
00 16.08 штиль 0 2000 м мгла 9/5 540 м
[Sc Ac trans]
+28.0 +27.4 97 +45 +45 опасность
перегрева
1003.7 1003.0 1
03 16.08 Ю 2 2000 м мгла 9/5 540 м
[Sc Ac trans]
+30.8 +28.3 87 +52 +55 опасность
перегрева
1004.6 1003.9 +27.5 1
06 16.08 Ю 2 2000 м мгла 10/6 540 м
[Sc diur, vesp Ac trans]
+32.2 +27.8 78 +52 +56 опасность
перегрева
1003.8 1003.1
09 16.08 ЮВ 1 2000 м мгла 9/5 540 м
[Cb calv Ac trans]
+33.4 +27.9 73 +54 +57 опасность
перегрева
1001.5 1000.8
12 16.08 Ю 1 2000 м гроза, ливневой дождь 10/6 450 м
[Cb calv As op]
+25.4 +24.8 96 +36 +36 очень
душно
1002.6 1001.9 +33.7 56
15 16.08 штиль 0 2000 м слаб. дождь {гроза} 10/5 540 м
[Sc As op]
+26.4 +26.1 98 +39 +39 очень
душно
1003.3 1002.6 61
18 16.08 штиль 0 2000 м мгла {гроза, дождь} 10/6 540 м
[Sc As op]
+27.0 +26.7 98 +42 +42 опасность
перегрева
1003.8 1003.1 61
21 16.08 штиль 0 2000 м гроза без осадков 10/5 540 м
[Cb calv As op]
+26.0 +26.0 100 +39 +39 очень
душно
1002.2 1001.5 68
00 17.08 ЮЗ 2 2000 м слаб. дождь {гроза} 10/6 540 м
[Cb calv As op]
+25.2 +24.6 96 +35 +35 очень
душно
1002.9 1002.2 69
03 17.08 СЗ 2 2000 м гроза, ливневой дождь 10/6 450 м
[Cb calv As op]
+25.4 +25.1 98 +36 +37 очень
душно
1004.5 1003.8 +24.4 90
06 17.08 ЮЗ 1 2000 м гроза, ливневой дождь 10/6 450 м
[Cb calv As op]
+26.0 +25.1 95 +37 +39 очень
душно
1004.1 1003.4 40
09 17.08 штиль 0 2000 м гроза, ливневой дождь 10/8 450 м
[Cb calv As op]
+26.4 +26.1 98 +39 +40 очень
душно
1002.2 1001.5 42
12 17.08 Ю 1 2000 м слаб. дождь {гроза} 10/6 450 м
[Cb calv As op]
+26.6 +26.3 98 +40 +40 очень
душно
1001.8 1001.1 +27.1 42
15 17.08 штиль 0 2000 м мгла {дождь} 10/5 450 м
[Sc As op]
+26.4 +26.1 98 +39 +39 очень
душно
1003.4 1002.7 42
18 17.08 штиль 0 2000 м мгла 10/6 450 м
[Sc diur, vesp As op]
+26.4 +26.1 98 +39 +39 очень
душно
1003.5 1002.8 42
21 17.08 ЮВ 1 2000 м мгла 10/5 450 м
[Sc As op]
+26.2 +25.9 98 +39 +39 очень
душно
1002.5 1001.8 42
00 18.08 штиль 0 2000 м слаб. дождь 10/6 450 м
[Cb calv As op]
+26.4 +26.1 98 +39 +39 очень
душно
1003.1 1002.4 43
03 18.08 штиль 0 2000 м слаб. дождь 10/6 450 м
[Cb calv As op]
+26.4 +26.1 98 +39 +41 очень
душно
1005.0 1004.3 +25.5 51
06 18.08 Ю 3 2000 м мгла {дождь} 10/6 450 м
[Cb calv As op]
+29.0 +27.3 91 +47 +48 опасность
перегрева
1004.4 1003.7 0.1
09 18.08 ЮВ 2 2000 м мгла 9/5 540 м
[Sc diur, vesp Ac trans]
+29.6 +26.0 81 +44 +48 опасность
перегрева
1002.6 1001.9 0.1
12 18.08 Ю 2 2000 м мгла {дождь} 8/5 540 м
[Cb calv Ac As]
+28.0 +26.0 89 +42 +42 опасность
перегрева
1002.4 1001.7 +29.7 2
15 18.08 Ю 2 2000 м слаб. дождь 9/4 540 м
[Sc Ac trans]
+27.4 +25.7 90 +40 +40 очень
душно
1005.3 1004.6 4

 

Местоположение метеостанции Колката (Западная Бенгалия, Индия): широта 22.65 долгота 88.45 высота над уровнем моря 6 м.

В архиве по умолчанию представлена погода в Колкате за последнюю неделю. Архивные данные за месяц целиком и за предыдущие месяцы, начиная с января 2011 года, Вы можете получить, выбрав интересующий диапазон дат из раскрывающегося списка и нажав кнопку "Ввод!".


*Определитесь, кто Вы:
робот инопланетянин человек

Внимание! Время в таблицах - всемирное. Для получения местного времени необходимо прибавить поправку, которая равна 5.5 ч.

Смотрите также архив погоды в соседних городах и на ближайших метеорологических станциях:

Погода в Колкате (Западная Бенгалия, Индия) (18 км)
Погода в Багати (Западная Бенгалия, Индия) (38 км)
Погода в Бейсирхэте (Западная Бенгалия, Индия) (43 км)
Погода в Каннинге (Западная Бенгалия, Индия) (50 км)
Погода в Улуберии (Западная Бенгалия, Индия) (54 км)
Погода в Даймонд Харбор (Западная Бенгалия, Индия) (58 км)
Погода в Саткхире (Бангладеш) (65 км)
Погода в Халдии (Западная Бенгалия, Индия) (80 км)
Погода в Кришнанагаре (Западная Бенгалия, Индия) (84 км)
Погода в Бардхамане (Западная Бенгалия, Индия) (89 км)

Пояснения к столбцам:

Ветер - указаны скорость ветра в м/с - средняя за 10 мин, порывы в срок и между сроками (в фигурных скобках) и направление, откуда дует ветер: С - северный, СВ - северо-восточный, В - восточный, ЮВ - юго-восточный, Ю - южный, ЮЗ - юго-западный, З - западный, СЗ - северо-западный.
Видимость - горизонтальная дальность видимости в метрах или километрах. При видимости от 1 до 10 км при отсутствии осадков обычно наблюдается дымка, при ухудшении видимости до 1 км и менее - туман. В сухую погоду видимость может ухудшаться дымом, пылью или мглою.
Явления - указаны атмосферные явления, наблюдавшиеся в срок или в последний час перед сроком; фигурными скобками обозначены явления, наблюдавшиеся между сроками (за 1-3 часа до срока); квадратными скобками обозначены град или гололедные отложения с указанием их диаметра в мм.
Облачность - указаны через наклонную черту общая и нижняя облачность в баллах и высота нижней границы облаков в метрах; квадратными скобками обозначены формы облаков: Ci - перистые, Cs - перисто-слоистые, Cc - перисто-кучевые, Ac - высококучевые, As - высокослоистые, Sc - слоисто-кучевые, Ns - слоисто-дождевые, Cu - кучевые, Cb - кучево-дождевые. Подробнее классификацию облаков см. в Атласе облаков (PDF).
T - Температура воздуха - температура, измеренная на высоте 2 м над землей.
Td - Температура точки росы - температура, при понижении до которой содержащийся в воздухе водяной пар достигнет насыщения.
f - Относительная влажность воздуха - влажноcть воздуха, измеренная на высоте 2 м над землей.
Te - Эффективная температура - температура, которую ощущает одетый по сезону человек в тени. Характеристика душности погоды. При расчете учитывается влияние влажности воздуха и скорости ветра на теплоощущения человека.
Tes - Эффективная температура на солнце - температура, которую ощущает человек, с поправкой на солнечный нагрев. Характеристика знойности погоды. Зависит от высоты солнца над горизонтом, облачности и скорости ветра. Ночью, в пасмурную погоду, а также при ветре 12 м/с и более поправка равна нулю.
P - Атмосферное давление - приведенное к уровню моря атмосферное давление.
Po - Атмосферное давление - измеренное на уровне метеостанции атмосферное давление.
Tmin - Минимальная температура - минимум температуры воздуха на высоте 2 м над землей.
Tmax - Максимальная температура - максимум температуры воздуха на высоте 2 м над землей.
R - Количество осадков - Количество выпавших осадков за период времени, мм. При наведении курсора мыши на число - период времени, за который выпало указанное количество осадков.
R24 - Количество осадков - Количество выпавших осадков за 24 часа, мм.
S - Снежный покров - Высота снежного покрова, см. При наведении курсора мыши на число - состояние снежного покрова и степень покрытия местности в баллах.